Uranium City, Saskatchewan

12:31 AM CST on October 20, 2017 (GMT -0600)
Uranium City

Weather History for CWDC - January, 2013

Change the Weather History Date:

Sunday, January 20, 2013

  Actual Average Record
Temperature  
Mean Temperature -20 °F -  
Max Temperature -16 °F -0 °F - ()
Min Temperature -24 °F -20 °F - ()
Degree Days  
Heating Degree Days 85    
Moisture  
Dew Point -27 °F    
Average Humidity 67    
Maximum Humidity 76    
Minimum Humidity 51    
Precipitation  
Precipitation 0.09 in 0.02 in - ()
Sea Level Pressure  
Sea Level Pressure 30.58 in    
Wind  
Wind Speed 9 mph ()    
Max Wind Speed 13 mph    
Max Gust Speed 22 mph    
T = Trace of Precipitation, MM = Missing Value Source: Averaged Metar Reports

Daily Weather History Graph

Daily Weather History Graph

Search for Another Location

Airport or City:

Trip Planner

Search our weather history database for the weather conditions in past years. The results will help you decide how hot, cold, wet, or windy it might be!

Date:

Astronomy

Jan. 20, 2013 Rise Set
Actual Time 9:49 AM CST 5:01 PM CST
Civil Twilight 8:59 AM CST 5:51 PM CST
Nautical Twilight 8:07 AM CST 6:43 PM CST
Astronomical Twilight 7:18 AM CST 7:32 PM CST
Moon 12:09 PM CST 4:16 AM CST
Length of Visible Light 8h 52m
Length of Day
7h 12m
Waxing Gibbous, 66% of the Moon is Illuminated
Jan 20
Waxing Gibbous
Jan 26
Full
Feb 3
Last Quarter
Feb 10
New
Feb 17
First Quarter

Hourly Weather History & Observations

Time (CST) Temp. Windchill Dew Point Humidity Pressure Visibility Wind Dir Wind Speed Gust Speed Precip Events Conditions
12:00 AM -24 °F - -31 °F 52% 30.61 in - WNW 10.4 mph - -  
12:00 AM -23.6 °F -45.6 °F -31.4 °F 67% 30.61 in - WNW 10.4 mph - N/A   Unknown
1:00 AM -23.4 °F -45.3 °F -31.0 °F 68% 30.60 in - WNW 10.4 mph - N/A   Unknown
2:00 AM -22.5 °F -46.4 °F -29.7 °F 69% 30.60 in - WNW 12.7 mph 18.4 mph N/A   Unknown
3:00 AM -22 °F - -29 °F 54% 30.60 in - WNW 11.5 mph - -  
3:00 AM -21.8 °F -44.4 °F -29.0 °F 69% 30.60 in - WNW 11.5 mph 19.6 mph N/A   Unknown
4:00 AM -21.5 °F -41.7 °F -28.5 °F 70% 30.62 in - WNW 9.2 mph - N/A   Unknown
5:00 AM -21.6 °F -40.5 °F -28.7 °F 70% 30.62 in - WNW 8.1 mph - N/A   Unknown
6:00 AM -21 °F - -29 °F 51% 30.61 in - NW 11.5 mph - -  
6:00 AM -21.5 °F -44.0 °F -28.7 °F 69% 30.61 in - NW 11.5 mph 19.6 mph N/A   Unknown
7:00 AM -20.6 °F -42.9 °F -27.6 °F 70% 30.61 in - WNW 11.5 mph 17.3 mph N/A   Unknown
8:00 AM -20.4 °F -42.6 °F -27.4 °F 70% 30.59 in - NW 11.5 mph - N/A   Unknown
9:00 AM -20 °F - -27 °F 54% 30.59 in - NW 10.4 mph - -  
9:00 AM -20.2 °F -41.3 °F -27.2 °F 70% 30.59 in - NW 10.4 mph - N/A   Unknown
10:00 AM -20.0 °F -43.2 °F -26.9 °F 71% 30.60 in - NW 12.7 mph 19.6 mph N/A   Unknown
11:00 AM -20.0 °F -41.1 °F -26.9 °F 71% 30.60 in - WNW 10.4 mph 18.4 mph N/A   Unknown
12:00 PM -19 °F - -26 °F 56% 30.59 in - WNW 10.4 mph - -  
12:00 PM -18.8 °F -39.5 °F -25.8 °F 70% 30.59 in - WNW 10.4 mph - N/A   Unknown
1:00 PM -17.5 °F -38.0 °F -25.1 °F 68% 30.58 in - WNW 10.4 mph - N/A   Unknown
2:00 PM -17.0 °F -38.4 °F -24.5 °F 69% 30.57 in - WNW 11.5 mph 20.7 mph N/A   Unknown
3:00 PM -17 °F - -24 °F 54% 30.56 in - WNW 12.7 mph - -  
3:00 PM -16.8 °F -39.1 °F -24.3 °F 69% 30.56 in - WNW 12.7 mph 21.9 mph N/A   Unknown
4:00 PM -16.8 °F -38.1 °F -24.0 °F 70% 30.56 in - WNW 11.5 mph 18.4 mph N/A   Unknown
5:00 PM -17.7 °F -35.7 °F -24.5 °F 71% 30.57 in - WNW 8.1 mph - N/A   Unknown
6:00 PM -19 °F - -25 °F 61% 30.56 in - WNW 8.1 mph - -  
6:00 PM -18.6 °F -36.8 °F -24.9 °F 73% 30.56 in - WNW 8.1 mph - N/A   Unknown
7:00 PM -18.2 °F -36.4 °F -24.3 °F 74% 30.54 in - WNW 8.1 mph - N/A   Unknown
8:00 PM -18.8 °F -37.0 °F -25.1 °F 73% 30.54 in - WNW 8.1 mph - N/A   Unknown
9:00 PM -20 °F - -25 °F 64% 30.54 in - West 5.8 mph - -  
9:00 PM -19.7 °F -34.9 °F -25.2 °F 75% 30.54 in - West 5.8 mph - N/A   Unknown
10:00 PM -21.3 °F - -26.7 °F 76% 30.53 in - SSW 2.3 mph - N/A   Unknown
11:00 PM -20.0 °F -30.7 °F -26.0 °F 74% 30.52 in - West 3.5 mph - N/A   Unknown